Torna al catalogo

COSMOS 618

AttivoMilitareLEO
NORAD 6986·PAYLOAD·🇷🇺 Russia

Lanciato Dec 19, 1973 da Plesetsk Cosmodrome

Loading…

Prossimi Passaggi (prossime 24 ore)

TLE

AggiornatoSource: Space-Track

Epoca: Sep 14, 2026, 14:55 UTC

1 06986U 73104B   26257.62175749 -.00000016  00000-0 -26186-6 0  9995
2 06986  74.0281 214.0248 0027617 341.4915 192.1921 12.49929712406409

Traccia COSMOS 618 in tempo reale con AllMySat

Download on the App Store